Location: Chuathbaluk
(61.5726°N, 159.2454°W)
Time: 18:37:24
(UTC+00:00)

TIGRISAT - Pass Details

Date: 21 January 2021
Orbit: 605 x 688 km, 97.7° (Epoch: 06 March)

Event Time Altitude Azimuth Distance (km) Brightness Sun altitude
Rises 16:21:01 0° 142° (SE) 2,872 ? -20.5°
Reaches altitude 10° 16:23:13 10° 137° (SE) 1,978 ? -20.3°
Maximum altitude 16:27:21 49° 63° (ENE) 816 ? -19.8°
Drops below altitude 10° 16:31:36 10° 349° (N) 2,030 ? -19.3°
Enters shadow 16:32:25 - 347° (NNW) 2,359 ? -19.2°
